Location: Cabeza de los Veneras
(40.2000°N, 5.2000°W)
Time: 02:56:22
(UTC+00:00)

SPOT 3 Rocket - Pass Details

Date: 18 April 2024
Orbit: 776 x 793 km, 98.6° (Epoch: 25 May)

Event Time Altitude Azimuth Distance (km) Brightness Sun altitude
Exits shadow 21:36:06 60° 59° (ENE) 903 3.7 -26.1°
Drops below altitude 10° 21:40:59 10° 354° (N) 2,356 6.6 -26.8°
Sets 21:43:19 0° 351° (N) 3,287 7.6 -27.1°
